Metropolis, IL

4:18 AM CDT on April 27, 2018 (GMT -0500)
Metropolis

Weather History for KM30 - March, 2013

Change the Weather History Date:

Wednesday, March 6, 2013

  Actual Average (KPAH) Record (KPAH)
Temperature  
Mean Temperature 36 °F -  
Max Temperature 42 °F 53 °F 77 °F (1951)
Min Temperature 29 °F 32 °F -6 °F (2015)
Degree Days  
Heating Degree Days 30    
Moisture  
Dew Point 25 °F    
Average Humidity 65    
Maximum Humidity 86    
Minimum Humidity 52    
Precipitation  
Precipitation 0.00 in - - ()
Sea Level Pressure  
Sea Level Pressure 30.26 in    
Wind  
Wind Speed 12 mph (NW)    
Max Wind Speed 20 mph    
Max Gust Speed 32 mph    
Visibility 10 miles    
Events Snow    
Averages and records for this station are not official NWS values.
T = Trace of Precipitation, MM = Missing Value Source: NWS Daily Summary

Daily Weather History Graph

Daily Weather History Graph

Search for Another Location

Airport or City:

Astronomy

Mar. 06, 2013 Rise Set
Actual Time 6:18 AM CST 5:54 PM CST
Civil Twilight 5:52 AM CST 6:20 PM CST
Nautical Twilight 5:22 AM CST 6:50 PM CST
Astronomical Twilight 4:52 AM CST 7:20 PM CST
Moon 2:22 AM CST (3/6) 12:41 PM CST (3/6)
Length of Visible Light 12h 27m
Length of Day
11h 35m
Waning Crescent, 29% of the Moon is Illuminated
Mar 6
Waning Crescent
Mar 11
New
Mar 19
First Quarter
Mar 27
Full
Apr 2
Last Quarter

Hourly Weather History & Observations

Time (CST) Temp. Windchill Dew Point Humidity Pressure Visibility Wind Dir Wind Speed Gust Speed Precip Events Conditions
12:15 AM 34.7 °F 25.1 °F 25.2 °F 68% 30.06 in 10.0 mi WNW 15.0 mph 25.3 mph N/A   Overcast
12:35 AM 34.7 °F 25.5 °F 25.3 °F 69% 30.07 in 10.0 mi WNW 13.8 mph 23.0 mph N/A   Overcast
12:55 AM 34.7 °F 25.1 °F 25.5 °F 69% 30.08 in 10.0 mi WNW 15.0 mph 23.0 mph N/A   Overcast
1:15 AM 34.5 °F 25.3 °F 25.3 °F 69% 30.09 in 10.0 mi WNW 13.8 mph 21.9 mph N/A   Overcast
1:35 AM 34.0 °F 23.8 °F 26.4 °F 74% 30.09 in 7.0 mi WNW 16.1 mph 23.0 mph N/A Snow Light Snow
1:55 AM 34.0 °F 22.7 °F 25.5 °F 71% 30.10 in 10.0 mi NW 19.6 mph 32.2 mph N/A   Overcast
2:15 AM 34.2 °F 24.8 °F 23.7 °F 66% 30.10 in 10.0 mi NW 13.8 mph 28.8 mph N/A   Overcast
2:35 AM 34.0 °F 22.7 °F 24.1 °F 67% 30.10 in 10.0 mi NW 19.6 mph 27.6 mph N/A   Overcast
2:55 AM 34.0 °F 23.8 °F 23.9 °F 67% 30.11 in 10.0 mi NW 16.1 mph 24.2 mph N/A   Overcast
3:15 AM 33.8 °F 23.2 °F 24.4 °F 69% 30.11 in 10.0 mi NW 17.3 mph 24.2 mph N/A   Overcast
3:35 AM 33.8 °F 25.3 °F 24.6 °F 69% 30.12 in 10.0 mi WNW 11.5 mph 25.3 mph N/A   Overcast
3:55 AM 33.8 °F 25.8 °F 24.1 °F 68% 30.13 in 10.0 mi NW 10.4 mph 23.0 mph N/A   Overcast
4:15 AM 33.8 °F 23.9 °F 23.2 °F 65% 30.14 in 10.0 mi NW 15.0 mph 24.2 mph N/A   Overcast
4:35 AM 33.8 °F 24.8 °F 23.2 °F 65% 30.15 in 10.0 mi NW 12.7 mph 19.6 mph N/A   Overcast
4:55 AM 33.4 °F 22.3 °F 23.2 °F 66% 30.16 in 10.0 mi WNW 18.4 mph 23.0 mph N/A   Overcast
5:15 AM 33.4 °F 23.9 °F 23.2 °F 66% 30.17 in 10.0 mi WNW 13.8 mph 27.6 mph N/A   Overcast
5:35 AM 33.4 °F 24.8 °F 23.0 °F 66% 30.19 in 10.0 mi NW 11.5 mph 21.9 mph N/A   Overcast
5:55 AM 33.4 °F 24.3 °F 23.0 °F 66% 30.20 in 10.0 mi NW 12.7 mph 25.3 mph N/A   Overcast
6:15 AM 33.4 °F 22.7 °F 23.0 °F 66% 30.21 in 10.0 mi NW 17.3 mph 26.5 mph N/A   Overcast
6:35 AM 33.3 °F 23.2 °F 23.4 °F 67% 30.21 in 10.0 mi NW 15.0 mph 21.9 mph N/A   Overcast
6:55 AM 33.3 °F 23.2 °F 23.7 °F 68% 30.22 in 10.0 mi NW 15.0 mph 23.0 mph N/A   Overcast
7:15 AM 33.3 °F 23.2 °F 23.5 °F 68% 30.24 in 10.0 mi NW 15.0 mph 21.9 mph N/A   Overcast
7:35 AM 33.3 °F 25.1 °F 23.7 °F 68% 30.25 in 10.0 mi NW 10.4 mph 23.0 mph N/A   Overcast
7:55 AM 33.8 °F 24.8 °F 23.7 °F 67% 30.26 in 10.0 mi NW 12.7 mph 20.7 mph N/A   Overcast
8:15 AM 34.2 °F 24.8 °F 24.1 °F 67% 30.27 in 10.0 mi NW 13.8 mph 20.7 mph N/A   Overcast
8:35 AM 34.7 °F 26.9 °F 24.6 °F 67% 30.28 in 10.0 mi NW 10.4 mph 20.7 mph N/A   Overcast
8:55 AM 35.1 °F 24.8 °F 24.6 °F 66% 30.28 in 10.0 mi NW 17.3 mph 23.0 mph N/A   Overcast
9:15 AM 35.8 °F 25.4 °F 25.0 °F 65% 30.29 in 10.0 mi NNW 18.4 mph 26.5 mph N/A   Overcast
9:35 AM 35.8 °F 26.5 °F 24.8 °F 64% 30.29 in 10.0 mi NW 15.0 mph - N/A   Overcast
9:55 AM 36.0 °F 26.3 °F 24.8 °F 64% 30.30 in 10.0 mi NW 16.1 mph 25.3 mph N/A   Overcast
10:15 AM 35.8 °F 27.3 °F 25.0 °F 65% 30.30 in 10.0 mi NNW 12.7 mph 26.5 mph N/A   Overcast
10:35 AM 36.0 °F 27.5 °F 24.8 °F 64% 30.31 in 10.0 mi NW 12.7 mph 24.2 mph N/A   Overcast
10:55 AM 36.1 °F 26.2 °F 24.8 °F 63% 30.32 in 10.0 mi NNW 17.3 mph 21.9 mph N/A   Overcast
11:15 AM 36.5 °F 27.8 °F 25.2 °F 64% 30.33 in 10.0 mi NNW 13.8 mph 19.6 mph N/A   Overcast
11:35 AM 37.0 °F 28.5 °F 25.7 °F 64% 30.32 in 10.0 mi NNW 13.8 mph 19.6 mph N/A   Overcast
11:55 AM 37.0 °F 28.9 °F 25.5 °F 63% 30.32 in 10.0 mi NNW 12.7 mph 18.4 mph N/A   Overcast
12:15 PM 37.6 °F 28.4 °F 24.8 °F 60% 30.31 in 10.0 mi NNW 16.1 mph 20.7 mph N/A   Overcast
12:55 PM 39.0 °F 32.8 °F 25.5 °F 58% 30.31 in 10.0 mi NNW 9.2 mph 21.9 mph N/A   Overcast
1:15 PM 40.8 °F 33.3 °F 25.7 °F 55% 30.31 in 10.0 mi NW 13.8 mph 20.7 mph N/A   Mostly Cloudy
1:35 PM 40.8 °F 33.7 °F 26.2 °F 56% 30.30 in 10.0 mi NW 12.7 mph 21.9 mph N/A   Mostly Cloudy
1:55 PM 41.0 °F 35.2 °F 25.0 °F 53% 30.29 in 10.0 mi NNW 9.2 mph 17.3 mph N/A   Scattered Clouds
2:15 PM 41.5 °F 37.1 °F 25.7 °F 53% 30.29 in 10.0 mi NNW 6.9 mph 16.1 mph N/A   Scattered Clouds
2:35 PM 41.7 °F 35.2 °F 25.5 °F 53% 30.30 in 10.0 mi North 11.5 mph 16.1 mph N/A   Scattered Clouds
2:55 PM 42.1 °F 38.4 °F 26.1 °F 53% 30.29 in 10.0 mi NW 5.8 mph 16.1 mph N/A   Scattered Clouds
3:15 PM 42.6 °F 38.4 °F 25.9 °F 52% 30.29 in 10.0 mi NNW 6.9 mph 16.1 mph N/A   Clear
3:35 PM 42.4 °F 37.0 °F 25.7 °F 52% 30.30 in 10.0 mi NNW 9.2 mph - N/A   Scattered Clouds
3:55 PM 42.6 °F 38.4 °F 25.9 °F 52% 30.30 in 10.0 mi NW 6.9 mph - N/A   Scattered Clouds
4:15 PM 42.1 °F 37.1 °F 25.7 °F 52% 30.30 in 10.0 mi North 8.1 mph 16.1 mph N/A   Scattered Clouds
4:35 PM 41.0 °F 35.2 °F 26.2 °F 56% 30.31 in 10.0 mi NW 9.2 mph - N/A   Mostly Cloudy
4:55 PM 40.8 °F 35.0 °F 26.4 °F 57% 30.30 in 10.0 mi NNW 9.2 mph - N/A   Overcast
5:15 PM 40.1 °F 33.6 °F 26.2 °F 58% 30.31 in 10.0 mi NNW 10.4 mph - N/A   Overcast
5:35 PM 39.2 °F 33.0 °F 26.6 °F 61% 30.31 in 10.0 mi NNW 9.2 mph - N/A   Overcast
5:55 PM 38.7 °F 32.9 °F 26.6 °F 62% 30.32 in 10.0 mi NNW 8.1 mph - N/A   Overcast
6:15 PM 38.5 °F 34.1 °F 26.4 °F 62% 30.32 in 10.0 mi North 5.8 mph - N/A   Overcast
6:35 PM 38.3 °F 33.9 °F 26.4 °F 62% 30.32 in 10.0 mi NNW 5.8 mph - N/A   Overcast
6:55 PM 37.9 °F 32.7 °F 26.2 °F 63% 30.32 in 10.0 mi NNW 6.9 mph - N/A   Overcast
7:15 PM 37.8 °F 34.2 °F 26.6 °F 64% 30.33 in 10.0 mi NW 4.6 mph - N/A   Overcast
7:35 PM 37.9 °F 34.4 °F 26.4 °F 63% 30.33 in 10.0 mi NW 4.6 mph - N/A   Overcast
7:55 PM 37.6 °F 35.1 °F 26.6 °F 65% 30.33 in 10.0 mi North 3.5 mph - N/A   Overcast
8:15 PM 37.4 °F 32.8 °F 27.3 °F 67% 30.32 in 10.0 mi North 5.8 mph - N/A   Overcast
8:35 PM 37.2 °F 31.9 °F 27.1 °F 67% 30.32 in 10.0 mi North 6.9 mph - N/A   Overcast
8:55 PM 35.8 °F 31.9 °F 25.9 °F 67% 30.33 in 10.0 mi NNE 4.6 mph - N/A   Scattered Clouds
9:15 PM 35.1 °F 32.2 °F 25.3 °F 68% 30.32 in 10.0 mi NNE 3.5 mph - N/A   Clear
9:35 PM 34.7 °F - 25.3 °F 69% 30.32 in 10.0 mi Calm Calm - N/A   Clear
9:55 PM 33.1 °F - 25.2 °F 73% 30.32 in 10.0 mi Calm Calm - N/A   Clear
10:15 PM 32.7 °F - 25.3 °F 74% 30.32 in 10.0 mi Calm Calm - N/A   Clear
10:35 PM 32.2 °F 28.9 °F 25.7 °F 77% 30.32 in 10.0 mi NNE 3.5 mph - N/A   Clear
10:55 PM 31.6 °F - 25.7 °F 79% 30.32 in 10.0 mi Calm Calm - N/A   Clear
11:15 PM 32.0 °F - 25.3 °F 76% 30.32 in 10.0 mi Calm Calm - N/A   Clear
11:35 PM 29.7 °F - 24.6 °F 81% 30.33 in 10.0 mi Calm Calm - N/A   Clear
11:55 PM 29.1 °F - 25.3 °F 86% 30.32 in 10.0 mi Calm Calm - N/A   Clear